Theta_e
334 333 330 328 328 327 324 325 324 320 320 325 326 327 322 320 327 328 328 328 331 331 330 329 329 327 324 327 328 328 327 331
336 334 333 330 329 328 326 325 325 322 320 325 327 329 326 323 321 325 328 328 331 331 329 329 329 325 318 321 323 323 324 325
336 336 335 333 330 330 329 327 326 325 322 323 327 329 329 327 325 325 327 329 331 332 330 329 330 328 321 319 318 319 320 322
338 337 336 335 333 332 332 330 329 327 325 323 326 328 330 330 328 327 328 329 330 331 332 332 332 333 330 325 319 317 318 319
340 340 338 337 336 334 333 333 331 329 327 324 325 327 331 330 330 329 328 329 330 330 331 333 333 334 332 330 323 318 317 318
341 343 341 339 338 336 334 334 333 331 328 325 325 325 330 331 330 329 328 328 329 330 330 331 332 333 331 332 327 320 317 317
342 342 345 344 340 338 336 335 334 333 330 326 324 324 328 331 330 329 328 328 328 328 328 330 331 330 329 330 330 324 320 318
339 342 343 342 342 340 338 336 335 334 332 328 323 323 323 329 330 330 328 328 327 327 326 327 328 327 325 327 328 328 322 319
342 339 341 342 341 341 340 338 337 334 332 330 325 322 323 322 326 329 328 327 327 327 326 324 324 324 324 327 327 331 325 321
336 342 341 342 341 341 340 340 339 337 335 332 329 323 322 323 324 326 328 328 327 325 324 323 322 322 325 329 329 331 328 323
325 342 342 343 341 340 339 339 338 339 337 333 331 328 323 321 322 323 325 328 327 326 323 322 320 321 324 330 331 332 331 325
315 326 341 341 341 339 339 339 337 340 338 336 333 331 326 323 321 322 322 325 327 327 325 322 320 320 324 329 332 332 332 328
311 314 316 331 340 339 338 338 338 338 338 337 335 333 330 325 323 322 322 323 323 325 324 323 322 321 324 327 331 332 332 331
308 312 315 316 320 335 340 338 338 338 337 336 336 335 333 329 324 321 321 323 324 324 323 323 323 322 327 331 331 333 332 332
306 309 312 315 318 326 338 339 338 337 337 337 337 337 335 332 328 325 323 324 325 325 326 323 322 323 325 330 329 332 332 334
306 308 309 310 313 320 330 338 337 337 336 336 336 336 335 333 330 328 327 326 328 327 328 330 323 323 324 327 332 333 331 333
305 305 307 308 310 312 316 325 336 337 336 335 335 335 335 334 333 330 328 327 328 329 328 330 324 323 324 326 329 333 334 330
304 304 305 306 308 310 312 313 320 330 335 334 334 334 334 335 333 331 330 328 328 329 330 330 328 323 325 326 328 330 330 330
303 303 303 304 305 307 309 311 315 318 325 334 334 333 333 333 334 331 330 330 328 328 329 330 330 327 326 326 327 329 330 332
301 302 302 303 303 304 306 308 312 315 318 323 333 335 333 333 333 333 332 331 330 329 329 330 329 329 327 326 326 328 330 331
Wind_Speed
29 28 26 25 25 25 24 24 24 24 26 25 26 25 25 26 27 26 25 22 18 15 16 18 16 14 15 15 14 14 16 19
28 27 26 25 24 24 23 23 23 23 24 25 24 24 25 24 25 25 24 22 18 16 19 19 16 14 14 14 14 14 15 16
28 27 26 25 24 24 23 23 23 22 23 25 24 24 23 24 24 25 24 21 19 18 18 17 14 13 13 12 12 13 14 16
25 26 27 26 25 24 24 23 23 23 23 25 25 24 24 23 23 24 23 21 19 19 18 17 15 14 12 10 11 12 13 15
20 22 27 28 27 27 25 24 24 24 24 25 26 26 25 24 23 23 23 22 20 19 19 17 15 12 11 11 12 12 12 15
22 23 24 30 29 30 29 27 26 26 26 26 27 27 27 27 25 24 22 22 21 19 18 18 16 12 10 12 14 12 12 14
28 27 26 26 30 33 32 30 28 28 28 28 30 29 27 28 28 26 25 23 21 20 19 18 17 14 11 12 14 14 13 14
27 30 30 27 31 34 35 34 32 30 31 31 31 31 30 29 30 29 27 25 22 20 19 18 18 15 12 11 13 16 15 15
30 34 36 31 31 32 34 30 34 36 35 34 33 33 32 30 30 30 28 26 24 22 20 19 18 17 13 13 15 17 17 17
18 31 29 32 32 31 31 30 33 39 38 37 36 35 33 32 31 31 29 27 25 24 23 20 18 18 13 13 16 17 19 19
19 23 28 33 29 31 31 30 30 36 41 41 39 38 36 35 35 33 31 30 28 26 24 23 21 19 14 13 16 17 20 21
26 16 18 26 31 32 30 29 31 31 42 44 43 41 39 38 37 36 33 32 31 29 27 25 23 20 16 14 16 19 21 24
33 27 21 8 23 26 25 30 33 31 38 41 42 43 42 41 40 38 36 36 35 33 30 28 25 21 16 14 15 19 21 25
33 30 26 21 15 15 27 29 27 31 32 32 39 42 45 45 45 43 41 39 37 36 35 32 29 26 13 8 2 8 20 24
34 31 27 25 22 15 21 25 22 22 28 34 41 45 47 48 47 45 43 42 42 40 39 38 30 31 27 11 2 5 5 16
32 30 29 28 25 16 12 22 21 24 27 33 34 38 42 44 44 45 45 45 43 44 41 41 37 33 33 35 14 7 4 2
31 30 29 30 27 24 17 14 18 25 28 30 33 34 38 42 46 43 45 46 45 44 43 42 43 32 33 28 34 16 12 3
31 30 28 31 30 26 24 20 16 13 16 26 31 33 36 40 42 44 44 45 47 47 46 44 44 43 33 33 29 25 13 7
32 30 27 28 31 29 26 24 19 17 17 16 24 30 33 39 42 42 44 48 49 44 44 47 46 44 43 38 35 33 31 28
26 33 32 28 27 29 28 26 20 20 21 21 18 26 35 37 41 45 47 46 47 45 44 49 43 46 43 43 39 37 33 37
Wind_Direction
169 170 170 167 164 161 160 158 157 155 154 152 147 144 142 143 146 145 139 135 129 124 126 130 120 117 125 130 132 131 126 121
174 175 175 173 170 168 166 164 163 162 161 158 154 150 148 148 150 151 146 143 136 125 127 131 118 110 120 127 132 132 129 129
179 181 181 179 177 175 173 170 169 169 168 166 163 158 157 155 154 154 153 152 146 137 133 134 126 122 125 127 131 133 132 130
188 187 188 185 184 183 182 178 176 177 177 176 172 167 165 164 161 160 161 161 156 151 146 143 141 139 143 148 144 139 142 140
202 198 195 193 190 190 189 188 186 185 185 185 182 177 173 174 172 170 169 169 166 164 159 160 157 153 159 162 164 154 152 148
213 211 203 200 198 196 194 195 194 193 193 193 191 188 182 183 182 179 178 176 176 175 171 170 171 171 170 169 177 170 163 160
210 209 209 206 204 201 200 200 201 201 199 199 200 199 191 190 189 187 184 185 184 183 181 178 177 178 180 181 184 185 178 173
222 218 210 210 213 208 206 206 206 207 206 205 205 208 204 198 195 194 192 190 190 192 193 189 187 189 193 199 200 198 191 184
244 228 218 213 210 217 210 204 209 212 213 209 209 211 213 212 205 201 200 198 197 198 202 200 200 201 208 221 212 207 202 195
267 236 219 214 212 210 212 212 211 215 215 214 214 213 215 216 214 213 208 206 207 207 209 211 209 209 217 219 212 210 210 205
12 242 224 221 217 217 212 217 216 219 218 216 216 217 216 217 217 218 216 214 214 215 214 217 219 213 215 219 217 217 218 212
18 13 242 229 226 229 230 221 224 223 223 220 218 218 218 219 220 220 218 220 220 219 222 220 222 219 216 220 224 225 223 220
14 12 357 353 231 224 221 219 220 221 227 225 224 221 220 220 223 223 221 220 222 222 224 225 223 218 212 220 228 233 232 231
6 9 8 0 322 262 226 227 227 225 225 228 230 228 227 224 223 223 222 222 222 224 223 224 226 217 188 163 228 241 237 235
359 2 4 6 355 290 248 234 228 224 224 231 233 233 231 229 227 226 225 224 224 222 223 223 221 220 206 184 166 218 173 225
360 0 3 3 5 358 312 235 233 227 228 230 228 233 235 235 232 230 230 229 226 226 224 224 219 218 216 216 223 174 189 204
357 355 0 2 5 7 356 350 262 245 237 236 235 232 236 236 234 233 231 233 232 229 228 224 224 216 214 214 223 223 214 153
354 352 358 359 2 5 3 354 328 308 261 235 234 235 233 235 237 231 232 232 234 233 231 231 227 222 225 222 217 214 204 186
353 348 349 357 358 1 2 356 346 324 293 284 243 231 227 233 237 228 228 232 235 233 231 232 231 225 222 228 225 224 227 228
357 351 347 350 358 356 358 359 347 335 327 299 281 242 238 236 234 235 235 232 234 230 229 235 230 232 227 226 230 230 228 229